Location: Rancho Del Sol Observatory
(38.7214°N, 120.6350°W)
Time: 10:19:18
(UTC-08:00)

Courier 1B Rocket - Pass Details

Date: 01 February 2020
Orbit: 920 x 1202 km, 28.2° (Epoch: 16 February)

Event Time Altitude Azimuth Distance (km) Brightness Sun altitude
Rises 06:29:21 0° 202° (SSW) 4,066 8.2 -8.1°
Reaches altitude 10° 06:34:05 10° 177° (S) 3,121 7.9 -7.2°
Maximum altitude 06:37:24 13° 152° (SSE) 2,883 8.2 -6.6°
Drops below altitude 10° 06:40:44 10° 126° (SE) 3,116 9.1 -6.0°
Sets 06:45:25 0° 101° (ESE) 4,053 10.8 -5.1°
